Regional Weather Roundup
Issued by NWS

Home | Current Version | Previous Version | Text Only | Print | Product List | Glossary On
Versions: 1 2 3 4 5 6 7 8 9 10 11 12 13 14 15 16 17 18 19 20 21 22 23 24 25 26 27 28 29 30 31 32 33 34 35 36 37 38 39 40 41 42 43 44 45 46 47 48 49 50
000
ASUS42 KFFC 201510
RWRGA
WEATHER ROUNDUP FOR GEORGIA
NATIONAL WEATHER SERVICE PEACHTREE CITY GA
1100 AM EDT FRI APR 20 2018

NOTE: "FAIR" INDICATES FEW OR NO CLOUDS BELOW 12,000 FEET WITH NO
SIGNIFICANT WEATHER AND/OR OBSTRUCTIONS TO VISIBILITY.

* = USE WITH CAUTION. THE STATIONS MARKED WITH AN ASTERISK MAY NOT
REPORT WEATHER SUCH AS PRECIPITATION, FOG, OR THUNDER AND ARE NOT
QUALITY CONTROLLED BY NWS.

THE REMARK "TC" DENOTES TEMPERATURE READING IN DEGREES CELSIUS.

GAZ001>058-201600-
NORTH GEORGIA

CITY           SKY/WX    TMP DP  RH WIND       PRES   REMARKS
ATLANTA        FAIR      55  31  39 E16G22    30.36R
ATHENS         FAIR      57  33  40 E7        30.37S
CHAMBLEE       FAIR      52  27  38 E9G16     30.36S
PEACHTREE CITY FAIR      55  28  35 E14G24    30.35R
ROME           FAIR      54  35  48 E8        30.37R
WEST ATLANTA   FAIR      54  27  35 E13       30.36R
GAINESVILLE    FAIR      50  30  46 SE9       30.39R
CARTERSVILLE   FAIR      54  32  43 VRB7      30.38R


CITY           SKY/WX    TMP DP  RH WIND       PRES   REMARKS
DALTON*        FAIR      52  32  46 CALM      30.40S
LAWRENCEVILLE* FAIR      53  29  39 E15       30.37R
MARIETTA       SUNNY     53  27  36 E12       30.35S
KENNESAW*      FAIR      52  28  39 E9        30.37R
CANTON*        FAIR      54  23  30 SE7       30.38R
BLAIRSVILLE*   FAIR      50  25  38 E3        30.36S
$$

GAZ059>098-102>109-201600-
CENTRAL GEORGIA

CITY           SKY/WX    TMP DP  RH WIND       PRES   REMARKS
AUGUSTA-BUSH   FAIR      59  29  31 NE14G21   30.37R
AUGUSTA-DANIEL FAIR      58  27  30 E14       30.37R
COLUMBUS       FAIR      58  30  34 E16G24    30.30R
MACON          FAIR      58  29  33 E18G25    30.33S
ROBINS AFB     SUNNY     57  31  37 E9G20     30.33R


CITY           SKY/WX    TMP DP  RH WIND       PRES   REMARKS
LAGRANGE*      FAIR      57  29  34 E8G16     30.32S
SYLVANIA*      FAIR      55  36  47 E12G20    30.35R
MILLEDGEVILLE* FAIR      59  32  36 E13G20    30.36S
$$

GAZ099>101-110>166-201600-
SOUTH GEORGIA

CITY           SKY/WX    TMP DP  RH WIND       PRES   REMARKS
SAVANNAH       PTSUNNY   59  35  40 E12       30.33R
VALDOSTA       FAIR      63  43  48 NE14G24   30.24R
ALMA           FAIR      59  35  40 E9G20     30.29R
ST SIMONS      CLOUDY    62  48  60 NE23G33   30.28R
FT STEWART     FAIR      58  34  40 NE10      30.31R
ALBANY         FAIR      62  37  39 E15       30.30R
HUNTER AFB     FAIR      58  35  42 E14G20    30.31R
MOODY AFB      PTSUNNY   62  40  45 NE16      30.24R
BRUNSWICK      CLOUDY    59  43  55 NE16G25   30.30R


CITY           SKY/WX    TMP DP  RH WIND       PRES   REMARKS
BAINBRIDGE*      N/A     66  46  48 E14G21    30.25R
MOULTRIE*      FAIR      61  39  44 NE7G17    30.26R
VIDALIA*       FAIR      57  36  44 NE14G25   30.33R
WAYCROSS*      FAIR      61  33  35 E13G18    30.29R
DOUGLAS*       FAIR      57  34  41 NE14G22   30.31R
$$




USA.gov is the U.S. government's official web portal to all federal, state and local government web resources and services.